When you browse on this site, cookies collect data to enhance your experience and personalize the content and advertising you see.
Visit our Privacy Policy to learn more. By continuing to use the site, you agree to this use of cookies and data.
  • In Romania
  • List of Countries
  • For 7 days
  • Water Temperature
  • Satellite Maps
  • Weather Map
  • Weather Widgets
  • user-avatar
    Login

    Hourly Weather Sari

    Today, 19 November, Monday

    Time Temperature Precipitation Wind Pressure Humidity
    00:00 +15°C° 0.1 mm 1 mps 762 mmHg 94%
    01:00 +15°C° 0.1 mm 1 mps 762 mmHg 93%
    02:00 +15°C° 0.2 mm 2 mps 762 mmHg 92%
    03:00 +15°C° 0.2 mm 2 mps 762 mmHg 91%
    04:00 +14°C° 0.2 mm 2 mps 762 mmHg 90%
    05:00 +14°C° 0.4 mm 2 mps 762 mmHg 89%
    06:00 +14°C° 0.4 mm 2 mps 762 mmHg 88%
    07:00 +14°C° 0.4 mm 2 mps 762 mmHg 87%
    08:00 +15°C° 0.6 mm 2 mps 763 mmHg 83%
    09:00 +16°C° 0.6 mm 3 mps 763 mmHg 79%
    10:00 +16°C° 0.6 mm 3 mps 763 mmHg 75%
    11:00 +17°C° 0.2 mm 3 mps 763 mmHg 75%
    12:00 +17°C° 0.2 mm 3 mps 763 mmHg 75%
    13:00 +17°C° 0.2 mm 2 mps 763 mmHg 76%
    14:00 +17°C° 0 mm 2 mps 763 mmHg 78%
    15:00 +17°C° 0 mm 2 mps 763 mmHg 80%
    16:00 +17°C° 0 mm 2 mps 763 mmHg 82%
    17:00 +16°C° 0 mm 2 mps 763 mmHg 86%
    18:00 +15°C° 0 mm 2 mps 764 mmHg 90%
    19:00 +15°C° 0 mm 2 mps 764 mmHg 94%
    20:00 +14°C° 0 mm 2 mps 764 mmHg 94%
    21:00 +14°C° 0 mm 2 mps 764 mmHg 93%
    22:00 +14°C° 0 mm 1 mps 764 mmHg 93%
    23:00 +14°C° 0 mm 2 mps 764 mmHg 92%

    Tomorrow, 20 November, Tuesday

    Time Temperature Precipitation Wind Pressure Humidity
    00:00 +13°C° 0 mm 2 mps 764 mmHg 91%
    01:00 +13°C° 0 mm 2 mps 764 mmHg 90%
    02:00 +13°C° 0 mm 2 mps 764 mmHg 88%
    03:00 +13°C° 0 mm 2 mps 764 mmHg 86%
    04:00 +13°C° 0 mm 2 mps 764 mmHg 84%
    05:00 +13°C° 0 mm 2 mps 764 mmHg 83%
    06:00 +13°C° 0 mm 2 mps 764 mmHg 81%
    07:00 +13°C° 0 mm 2 mps 764 mmHg 79%
    08:00 +13°C° 0 mm 3 mps 764 mmHg 72%
    09:00 +16°C° 0 mm 3 mps 764 mmHg 65%
    10:00 +18°C° 0 mm 3 mps 764 mmHg 58%
    11:00 +19°C° 0 mm 3 mps 763 mmHg 55%
    12:00 +20°C° 0 mm 3 mps 762 mmHg 52%
    13:00 +21°C° 0 mm 3 mps 762 mmHg 49%
    14:00 +20°C° 0 mm 3 mps 761 mmHg 50%
    15:00 +20°C° 0 mm 3 mps 761 mmHg 51%
    16:00 +19°C° 0 mm 3 mps 760 mmHg 53%
    17:00 +18°C° 0 mm 3 mps 760 mmHg 56%
    18:00 +17°C° 0 mm 3 mps 760 mmHg 59%
    19:00 +16°C° 0 mm 2 mps 760 mmHg 62%
    20:00 +16°C° 0 mm 2 mps 760 mmHg 61%
    21:00 +16°C° 0 mm 2 mps 760 mmHg 61%
    22:00 +16°C° 0 mm 2 mps 759 mmHg 60%
    23:00 +16°C° 0 mm 2 mps 759 mmHg 59%

    Day after tomorrow, 21 November, Wednesday

    Time Temperature Precipitation Wind Pressure Humidity
    00:00 +16°C° 0 mm 2 mps 759 mmHg 58%
    01:00 +16°C° 0 mm 2 mps 759 mmHg 58%
    02:00 +16°C° 0 mm 1 mps 758 mmHg 56%
    03:00 +16°C° 0 mm 1 mps 758 mmHg 55%
    04:00 +16°C° 0 mm 1 mps 758 mmHg 54%
    05:00 +16°C° 0 mm 1 mps 758 mmHg 53%
    06:00 +16°C° 0 mm 1 mps 758 mmHg 53%
    07:00 +16°C° 0 mm 2 mps 758 mmHg 52%
    08:00 +17°C° 0 mm 2 mps 759 mmHg 47%
    09:00 +19°C° 0 mm 2 mps 759 mmHg 42%
    10:00 +20°C° 0 mm 2 mps 759 mmHg 37%
    11:00 +21°C° 0 mm 2 mps 759 mmHg 35%
    12:00 +23°C° 0 mm 2 mps 758 mmHg 34%
    13:00 +24°C° 0 mm 2 mps 758 mmHg 32%
    14:00 +23°C° 0 mm 2 mps 758 mmHg 37%
    15:00 +21°C° 0 mm 2 mps 758 mmHg 43%
    16:00 +20°C° 0 mm 2 mps 758 mmHg 48%
    17:00 +19°C° 0 mm 2 mps 758 mmHg 54%
    18:00 +18°C° 0 mm 2 mps 758 mmHg 60%
    19:00 +16°C° 0 mm 1 mps 759 mmHg 66%
    20:00 +16°C° 0 mm 2 mps 759 mmHg 65%
    21:00 +16°C° 0 mm 2 mps 758 mmHg 65%
    22:00 +15°C° 0 mm 2 mps 758 mmHg 65%
    23:00 +15°C° 0 mm 2 mps 758 mmHg 64%

    22 November, Thursday

    Time Temperature Precipitation Wind Pressure Humidity
    00:00 +15°C° 0 mm 2 mps 758 mmHg 63%
    01:00 +15°C° 0 mm 2 mps 757 mmHg 62%
    02:00 +15°C° 0 mm 2 mps 757 mmHg 62%
    03:00 +15°C° 0 mm 2 mps 757 mmHg 61%
    04:00 +15°C° 0 mm 2 mps 756 mmHg 61%
    05:00 +15°C° 0 mm 2 mps 756 mmHg 59%
    06:00 +14°C° 0 mm 3 mps 756 mmHg 58%
    07:00 +14°C° 0 mm 3 mps 757 mmHg 56%
    08:00 +17°C° 0 mm 3 mps 757 mmHg 52%
    09:00 +19°C° 0 mm 2 mps 757 mmHg 47%
    10:00 +20°C° 0 mm 2 mps 757 mmHg 43%
    11:00 +21°C° 0 mm 2 mps 757 mmHg 42%
    12:00 +23°C° 0 mm 2 mps 757 mmHg 41%
    13:00 +24°C° 0 mm 2 mps 756 mmHg 40%
    14:00 +23°C° 0 mm 2 mps 756 mmHg 44%
    15:00 +21°C° 0 mm 2 mps 756 mmHg 48%
    16:00 +21°C° 0 mm 2 mps 756 mmHg 51%
    17:00 +19°C° 0 mm 2 mps 756 mmHg 58%
    18:00 +18°C° 0 mm 2 mps 757 mmHg 64%
    19:00 +16°C° 0 mm 2 mps 757 mmHg 70%
    20:00 +16°C° 0 mm 2 mps 757 mmHg 69%
    21:00 +16°C° 0 mm 2 mps 757 mmHg 68%
    22:00 +16°C° 0 mm 1 mps 757 mmHg 66%
    23:00 +16°C° 0 mm 2 mps 757 mmHg 65%

    23 November, Friday

    Time Temperature Precipitation Wind Pressure Humidity
    00:00 +16°C° 0 mm 2 mps 757 mmHg 64%
    01:00 +16°C° 0 mm 2 mps 757 mmHg 63%
    02:00 +16°C° 0 mm 1 mps 757 mmHg 62%
    03:00 +16°C° 0 mm 1 mps 756 mmHg 61%
    04:00 +16°C° 0 mm 1 mps 756 mmHg 60%
    05:00 +16°C° 0 mm 1 mps 757 mmHg 58%
    06:00 +16°C° 0 mm 1 mps 757 mmHg 56%
    07:00 +16°C° 0 mm 1 mps 757 mmHg 54%
    08:00 +18°C° 0 mm 1 mps 757 mmHg 49%
    09:00 +19°C° 0 mm 2 mps 757 mmHg 44%
    10:00 +21°C° 0 mm 2 mps 757 mmHg 39%
    11:00 +23°C° 0 mm 2 mps 757 mmHg 39%
    12:00 +23°C° 0 mm 2 mps 757 mmHg 38%
    13:00 +24°C° 0 mm 3 mps 756 mmHg 38%
    14:00 +23°C° 0 mm 2 mps 757 mmHg 43%
    15:00 +21°C° 0 mm 2 mps 757 mmHg 49%
    16:00 +20°C° 0 mm 2 mps 757 mmHg 55%
    17:00 +19°C° 0.1 mm 2 mps 758 mmHg 61%
    18:00 +18°C° 0.1 mm 2 mps 759 mmHg 67%
    19:00 +17°C° 0.1 mm 2 mps 760 mmHg 73%
    20:00 +17°C° 0.1 mm 2 mps 760 mmHg 76%
    21:00 +16°C° 0.1 mm 2 mps 761 mmHg 80%
    22:00 +16°C° 0.1 mm 3 mps 762 mmHg 84%
    23:00 +16°C° 0.1 mm 3 mps 762 mmHg 86%

    24 November, Saturday

    Time Temperature Precipitation Wind Pressure Humidity
    00:00 +14°C° 0.1 mm 3 mps 762 mmHg 88%
    01:00 +14°C° 0.1 mm 3 mps 762 mmHg 91%
    02:00 +14°C° 0.3 mm 3 mps 763 mmHg 91%
    03:00 +14°C° 0.3 mm 3 mps 763 mmHg 91%
    04:00 +14°C° 0.3 mm 3 mps 764 mmHg 91%
    05:00 +14°C° 0.5 mm 3 mps 764 mmHg 92%
    06:00 +14°C° 0.5 mm 3 mps 765 mmHg 92%
    07:00 +13°C° 0.5 mm 4 mps 766 mmHg 93%
    08:00 +13°C° 0.6 mm 3 mps 767 mmHg 91%
    09:00 +14°C° 0.6 mm 3 mps 767 mmHg 89%
    10:00 +14°C° 0.6 mm 3 mps 768 mmHg 87%
    11:00 +14°C° 0.2 mm 3 mps 768 mmHg 86%
    12:00 +14°C° 0.2 mm 3 mps 767 mmHg 86%
    13:00 +14°C° 0.2 mm 3 mps 767 mmHg 85%
    14:00 +14°C° 0.1 mm 3 mps 767 mmHg 86%
    15:00 +15°C° 0.1 mm 2 mps 767 mmHg 87%
    16:00 +14°C° 0.1 mm 2 mps 767 mmHg 89%
    17:00 +14°C° 0 mm 1 mps 767 mmHg 90%
    18:00 +14°C° 0 mm 1 mps 767 mmHg 91%
    19:00 +13°C° 0 mm 1 mps 767 mmHg 93%
    20:00 +13°C° 0 mm 1 mps 767 mmHg 93%
    21:00 +13°C° 0 mm 1 mps 767 mmHg 92%
    22:00 +13°C° 0 mm 1 mps 767 mmHg 92%
    23:00 +13°C° 0 mm 1 mps 766 mmHg 91%
    Show more